CW0750 Weather Reports


Display with metric or nautical units.
time (UTC)temp
F
wind
direction
speed
MPH
gust
MPH
rain 1hr
in
rain 24hr
in
rain mn
in
humidity
%
barometer
mb
20240522131509 39 234 6.0 0.0 0.00 0.00 0.06 72 1005.7
20240522130008 38 256 5.0 0.0 0.00 0.00 0.06 75 1005.7
20240522124555 38 298 8.0 0.0 0.00 0.00 0.06 79 1006.1
20240522123049 38 296 8.0 0.0 0.00 0.00 0.06 80 1006.3
20240522121533 39 271 7.0 0.0 0.00 0.00 0.06 73 1006.4
20240522120040 40 258 8.0 0.0 0.00 0.00 0.06 70 1006.5
20240522114529 40 289 9.0 0.0 0.00 0.00 0.06 69 1006.5
20240522113028 41 278 7.0 0.0 0.00 0.00 0.06 63 1006.6
20240522111526 41 335 8.0 0.0 0.00 0.00 0.06 65 1006.5
20240522110021 41 295 7.0 0.0 0.00 0.00 0.06 69 1006.7
20240522104519 42 274 5.0 0.0 0.00 0.00 0.06 65 1006.5
20240522103031 42 265 7.0 0.0 0.00 0.00 0.06 64 1006.5
20240522101514 43 236 5.0 0.0 0.00 0.00 0.06 65 1006.5
20240522100117 44 267 7.0 0.0 0.00 0.00 0.06 66 1006.5
20240522094553 44 301 5.0 0.0 0.00 0.00 0.06 66 1006.3
20240522093038 44 295 3.0 0.0 0.00 0.00 0.06 69 1006.1
20240522091529 45 289 6.0 0.0 0.00 0.00 0.06 75 1006.3
20240522090010 46 272 6.0 0.0 0.00 0.00 0.06 78 1006.2
20240522084508 46 253 4.0 0.0 0.00 0.00 0.06 85 1006.1
20240522083048 45 282 3.0 0.0 0.00 0.00 0.06 94 1006.1
20240522081549 45 10 0.0 0.0 0.00 0.00 0.06 96 1006.3
20240522080034 45 277 0.0 0.0 0.00 0.00 0.05 96 1006.4
20240522074528 45 277 0.0 0.0 0.00 0.00 0.05 96 1006.6
20240522073013 44 241 0.0 0.0 0.00 0.00 0.05 95 1006.8
20240522071509 44 241 0.0 0.0 0.00 0.00 0.04 95 1007.1
20240522070050 44 241 0.0 0.0 0.00 0.00 0.04 94 1007.3
20240522064552 44 240 0.0 0.0 0.00 0.00 0.03 94 1007.5
20240522063034 45 240 0.0 0.0 0.00 0.00 0.03 93 1007.7
20240522061529 44 240 0.0 0.0 0.00 0.00 0.03 91 1007.8
20240522060027 45 240 0.0 0.0 0.00 0.00 0.03 90 1008.0
20240522054509 45 239 0.0 0.0 0.00 0.00 0.03 89 1008.4
20240522053052 45 240 0.0 0.0 0.00 0.00 0.03 89 1008.5
20240522051550 45 237 0.0 0.0 0.00 0.00 0.03 88 1008.6
20240522050033 45 237 0.0 0.0 0.00 0.00 0.03 88 1008.7
20240522044546 45 237 0.0 0.0 0.00 0.00 0.03 89 1008.8
20240522043035 45 237 0.0 0.0 0.00 0.00 0.03 87 1009.0
20240522041518 45 264 0.0 0.0 0.00 0.00 0.03 87 1009.0
20240522040031 46 301 0.0 0.0 0.00 0.00 0.03 87 1009.1
20240522034515 46 301 0.0 0.0 0.00 0.00 0.03 86 1009.2
20240522033013 47 316 0.0 0.0 0.00 0.00 0.03 85 1009.4
20240522031526 47 316 0.0 0.0 0.00 0.00 0.03 85 1009.5
20240522030016 47 284 0.0 0.0 0.00 0.00 0.03 88 1009.6
20240522024522 47 291 0.0 0.0 0.00 0.00 0.03 88 1009.8
20240522023051 48 272 0.0 0.0 0.00 0.00 0.03 88 1009.9
20240522021550 48 267 0.0 0.0 0.00 0.00 0.03 88 1010.1
20240522020039 48 295 0.0 0.0 0.00 0.00 0.02 87 1010.3
20240522014531 48 244 0.0 0.0 0.00 0.00 0.02 86 1010.5
20240522013014 48 295 2.0 0.0 0.00 0.00 0.01 84 1010.6
20240522011512 49 277 2.0 0.0 0.00 0.00 0.01 83 1010.7
20240522010103 49 274 2.0 0.0 0.00 0.00 0.01 82 1010.8
20240522004554 50 281 0.0 0.0 0.00 0.00 0.01 82 1011.0
20240522003035 50 284 2.0 0.0 0.00 0.00 0.01 83 1011.0
20240522001539 50 264 2.0 0.0 0.00 0.00 0.01 82 1011.0
20240522000037 51 277 4.0 0.0 0.00 0.00 0.00 80 1011.1
20240521234516 52 284 4.0 0.0 0.00 0.00 0.00 75 1011.2
20240521233055 53 267 5.0 0.0 0.00 0.00 0.00 70 1011.4
20240521231558 54 285 4.0 0.0 0.00 0.00 0.00 67 1011.5
20240521230035 53 292 4.0 0.0 0.00 0.00 0.00 69 1011.7
20240521224535 53 264 4.0 0.0 0.00 0.00 0.00 70 1011.9
20240521223022 53 325 3.0 0.0 0.00 0.00 0.00 68 1012.1
20240521221517 53 227 3.0 0.0 0.00 0.00 0.00 66 1012.2
20240521220056 53 240 4.0 0.0 0.00 0.00 0.00 65 1012.4
20240521214630 53 309 2.0 0.0 0.00 0.00 0.00 65 1012.6
20240521213036 52 277 4.0 0.0 0.00 0.00 0.00 65 1012.8
20240521211535 52 342 2.0 0.0 0.00 0.00 0.00 66 1013.0
20240521210024 51 292 5.0 0.0 0.00 0.00 0.00 68 1013.2
20240521204516 51 295 2.0 0.0 0.00 0.00 0.00 68 1013.3
20240521203109 50 329 4.0 0.0 0.00 0.00 0.00 72 1013.4
20240521201606 51 320 3.0 0.0 0.00 0.00 0.00 73 1013.6
20240521200038 52 312 2.0 0.0 0.00 0.00 0.00 69 1013.6
20240521194537 51 296 5.0 0.0 0.00 0.00 0.00 66 1013.7
20240521193023 51 278 5.0 0.0 0.00 0.00 0.00 66 1013.7
20240521191520 52 299 5.0 0.0 0.00 0.00 0.00 63 1013.7
20240521190059 52 274 5.0 0.0 0.00 0.00 0.00 63 1013.9
20240521184600 52 284 4.0 0.0 0.00 0.00 0.00 62 1014.1
20240521183051 52 247 4.0 0.0 0.00 0.00 0.00 62 1014.2
20240521181546 51 253 6.0 0.0 0.00 0.00 0.00 62 1014.3
20240521180045 51 311 6.0 0.0 0.00 0.00 0.00 62 1014.3
20240521174550 51 263 5.0 0.0 0.00 0.00 0.00 61 1014.7
20240521173046 50 302 7.0 0.0 0.00 0.00 0.00 63 1014.7
20240521171542 49 326 6.0 0.0 0.00 0.00 0.00 64 1014.8
20240521170032 49 275 5.0 0.0 0.00 0.00 0.00 64 1015.0
20240521164536 48 329 5.0 0.0 0.00 0.00 0.00 64 1015.2
20240521163024 48 232 5.0 0.0 0.00 0.00 0.00 62 1015.2
20240521161527 48 333 4.0 0.0 0.00 0.00 0.00 60 1015.3
20240521160110 48 271 5.0 0.0 0.00 0.00 0.00 58 1015.4
20240521154603 48 291 6.0 0.0 0.00 0.00 0.00 55 1015.2
20240521153058 48 299 6.0 0.0 0.00 0.00 0.00 53 1015.1
20240521151556 48 265 5.0 0.0 0.00 0.00 0.00 51 1015.2
20240521150054 48 243 7.0 0.0 0.00 0.00 0.00 51 1015.2
20240521144555 48 216 8.0 0.0 0.00 0.00 0.00 52 1015.2
20240521143053 48 246 7.0 0.0 0.00 0.00 0.00 50 1015.2
20240521141600 48 240 7.0 0.0 0.00 0.00 0.00 47 1015.3
20240521140030 48 233 6.0 0.0 0.00 0.00 0.00 50 1015.4
20240521134530 47 243 5.0 0.0 0.00 0.00 0.00 56 1015.5
20240521133010 47 241 6.0 0.0 0.00 0.00 0.00 58 1015.5